N77X KTEB-KBOS

Flight info

Callsign N77X
Flight time 0h 48m
Altitude 21000
Route BREZY V39 CMK MERIT ROBUC3
Aircraft C750/M-SDE3FGHIJ1J2RWXY/LB1

Departure

Time 2026-05-05 00:07
Airport Teterboro Airport (KTEB)

Arrival

Time 2026-05-05 00:56
Airport Boston Logan International Airport (KBOS)
Time Latitude Longitude Altitude Speed Heading
2026-05-04 23:49 40.84656 -74.06596 7 ft 0 kts 49°
2026-05-05 00:03 40.84672 -74.06587 10 ft 5 kts 343°
2026-05-05 00:03 40.84710 -74.06628 10 ft 6 kts 318°
2026-05-05 00:03 40.84715 -74.06635 9 ft 0 kts 318°
2026-05-05 00:03 40.84725 -74.06647 16 ft 6 kts 317°
2026-05-05 00:04 40.84790 -74.06647 14 ft 15 kts 47°
2026-05-05 00:04 40.84874 -74.06522 16 ft 22 kts 48°
2026-05-05 00:04 40.84996 -74.06341 16 ft 27 kts 48°
2026-05-05 00:04 40.85123 -74.06151 11 ft 28 kts 48°
2026-05-05 00:05 40.85251 -74.05966 10 ft 27 kts 48°
2026-05-05 00:05 40.85372 -74.05787 12 ft 25 kts 48°
2026-05-05 00:05 40.85480 -74.05626 13 ft 23 kts 48°
2026-05-05 00:05 40.85578 -74.05483 17 ft 20 kts 48°
2026-05-05 00:06 40.85663 -74.05358 15 ft 12 kts 48°
2026-05-05 00:06 40.85725 -74.05366 15 ft 10 kts 317°
2026-05-05 00:06 40.85757 -74.05432 15 ft 8 kts 246°
2026-05-05 00:06 40.85687 -74.05535 15 ft 44 kts 228°
2026-05-05 00:07 40.85236 -74.06203 74 ft 130 kts 226°
2026-05-05 00:07 40.84612 -74.07097 674 ft 142 kts 224°
2026-05-05 00:07 40.83886 -74.08112 755 ft 168 kts 227°
2026-05-05 00:07 40.83005 -74.09306 1092 ft 200 kts 226°
2026-05-05 00:08 40.81980 -74.10720 1591 ft 228 kts 226°
2026-05-05 00:08 40.80982 -74.12397 1486 ft 239 kts 244°
2026-05-05 00:08 40.80737 -74.14556 1538 ft 239 kts 265°
2026-05-05 00:08 40.80762 -74.16796 1732 ft 251 kts 267°
2026-05-05 00:09 40.80803 -74.19053 2044 ft 250 kts 268°
2026-05-05 00:09 40.80840 -74.21366 2514 ft 251 kts 268°
2026-05-05 00:09 40.80877 -74.23591 3898 ft 241 kts 268°
2026-05-05 00:09 40.80900 -74.25831 4940 ft 246 kts 268°
2026-05-05 00:10 40.80907 -74.28118 5821 ft 252 kts 268°
2026-05-05 00:10 40.80882 -74.30464 6022 ft 257 kts 268°
2026-05-05 00:10 40.80840 -74.32803 6028 ft 255 kts 267°
2026-05-05 00:10 40.80862 -74.35129 5991 ft 254 kts 277°
2026-05-05 00:11 40.81641 -74.37232 6014 ft 262 kts 302°
2026-05-05 00:11 40.83012 -74.38843 6016 ft 270 kts 324°
2026-05-05 00:11 40.84818 -74.39643 6018 ft 280 kts 348°
2026-05-05 00:11 40.86769 -74.39394 6018 ft 290 kts 13°
2026-05-05 00:12 40.88547 -74.38119 6045 ft 295 kts 31°
2026-05-05 00:12 40.90232 -74.36563 6045 ft 294 kts 33°
2026-05-05 00:12 40.91911 -74.35028 6042 ft 292 kts 32°
2026-05-05 00:12 40.93596 -74.33529 6040 ft 292 kts 31°
2026-05-05 00:13 40.95280 -74.32027 6036 ft 292 kts 31°
2026-05-05 00:13 40.96962 -74.30512 6031 ft 292 kts 32°
2026-05-05 00:13 40.98645 -74.28993 6030 ft 292 kts 32°
2026-05-05 00:13 41.00331 -74.27478 6028 ft 292 kts 31°
2026-05-05 00:14 41.01991 -74.25989 6029 ft 294 kts 32°
2026-05-05 00:14 41.03695 -74.24448 6023 ft 292 kts 31°
2026-05-05 00:14 41.05377 -74.22929 6017 ft 290 kts 31°
2026-05-05 00:14 41.07072 -74.21405 6603 ft 297 kts 31°
2026-05-05 00:15 41.08727 -74.19907 8084 ft 285 kts 30°
2026-05-05 00:15 41.10385 -74.18412 9138 ft 291 kts 30°
2026-05-05 00:15 41.12060 -74.16901 10184 ft 292 kts 30°
2026-05-05 00:15 41.13796 -74.15337 10589 ft 314 kts 30°
2026-05-05 00:16 41.15532 -74.13345 10615 ft 352 kts 48°
2026-05-05 00:16 41.16599 -74.10284 10916 ft 374 kts 71°
2026-05-05 00:16 41.17282 -74.06953 11708 ft 376 kts 73°
2026-05-05 00:16 41.18002 -74.03578 12348 ft 383 kts 71°
2026-05-05 00:17 41.18787 -74.00175 13038 ft 388 kts 70°
2026-05-05 00:17 41.19572 -73.96714 13671 ft 395 kts 71°
2026-05-05 00:17 41.20334 -73.93190 14298 ft 399 kts 72°
2026-05-05 00:17 41.21102 -73.89640 14956 ft 401 kts 71°
2026-05-05 00:18 41.21894 -73.86073 15621 ft 404 kts 71°
2026-05-05 00:18 41.22693 -73.82478 16277 ft 408 kts 71°
2026-05-05 00:18 41.23487 -73.78852 16972 ft 411 kts 72°
2026-05-05 00:18 41.24286 -73.75188 17665 ft 414 kts 72°
2026-05-05 00:19 41.25094 -73.71500 18336 ft 419 kts 72°
2026-05-05 00:19 41.25912 -73.67767 18961 ft 422 kts 72°
2026-05-05 00:19 41.26731 -73.64014 19626 ft 425 kts 72°
2026-05-05 00:19 41.27553 -73.60232 20321 ft 427 kts 71°
2026-05-05 00:20 41.28404 -73.56478 20939 ft 423 kts 69°
2026-05-05 00:20 41.29300 -73.52696 21020 ft 429 kts 70°
2026-05-05 00:20 41.30154 -73.48873 21020 ft 432 kts 71°
2026-05-05 00:20 41.31017 -73.45047 21019 ft 432 kts 70°
2026-05-05 00:21 41.31911 -73.41226 21023 ft 433 kts 70°
2026-05-05 00:21 41.32803 -73.37401 21019 ft 433 kts 70°
2026-05-05 00:21 41.33676 -73.33568 21022 ft 432 kts 71°
2026-05-05 00:21 41.34545 -73.29736 21023 ft 433 kts 71°
2026-05-05 00:22 41.35424 -73.25903 21041 ft 433 kts 70°
2026-05-05 00:22 41.36304 -73.22068 21046 ft 433 kts 70°
2026-05-05 00:22 41.37179 -73.18229 21061 ft 433 kts 71°
2026-05-05 00:22 41.38038 -73.14383 21047 ft 434 kts 72°
2026-05-05 00:23 41.38563 -73.10409 21062 ft 436 kts 81°
2026-05-05 00:23 41.38973 -73.06411 21058 ft 436 kts 80°
2026-05-05 00:23 41.39420 -73.02420 21062 ft 436 kts 79°
2026-05-05 00:23 41.39869 -72.98425 21064 ft 436 kts 80°
2026-05-05 00:24 41.40293 -72.94422 21064 ft 436 kts 80°
2026-05-05 00:24 41.40711 -72.90416 21061 ft 437 kts 80°
2026-05-05 00:24 41.41141 -72.86413 21059 ft 437 kts 80°
2026-05-05 00:24 41.41575 -72.82405 21060 ft 437 kts 80°
2026-05-05 00:25 41.42001 -72.78394 21058 ft 437 kts 80°
2026-05-05 00:25 41.42420 -72.74387 21070 ft 437 kts 80°
2026-05-05 00:25 41.42842 -72.70375 21072 ft 437 kts 80°
2026-05-05 00:25 41.43266 -72.66367 21078 ft 437 kts 80°
2026-05-05 00:26 41.43681 -72.62410 21080 ft 437 kts 80°
2026-05-05 00:26 41.44098 -72.58403 21081 ft 437 kts 80°
2026-05-05 00:26 41.44520 -72.54337 21081 ft 437 kts 80°
2026-05-05 00:26 41.44936 -72.50330 21083 ft 437 kts 80°
2026-05-05 00:27 41.45344 -72.46373 21082 ft 437 kts 80°
2026-05-05 00:27 41.45757 -72.42358 21081 ft 437 kts 80°
2026-05-05 00:27 41.46168 -72.38352 21079 ft 437 kts 80°
2026-05-05 00:27 41.46577 -72.34341 21076 ft 436 kts 80°
2026-05-05 00:28 41.46986 -72.30328 21074 ft 436 kts 80°
2026-05-05 00:28 41.47393 -72.26316 21069 ft 436 kts 80°
2026-05-05 00:28 41.47861 -72.22325 21048 ft 435 kts 75°
2026-05-05 00:28 41.48828 -72.18531 21040 ft 431 kts 63°
2026-05-05 00:29 41.50137 -72.14944 21051 ft 430 kts 60°
2026-05-05 00:29 41.51456 -72.11367 21061 ft 430 kts 60°
2026-05-05 00:29 41.52759 -72.07777 21064 ft 430 kts 61°
2026-05-05 00:29 41.54062 -72.04190 21063 ft 430 kts 60°
2026-05-05 00:30 41.55372 -72.00606 21064 ft 430 kts 60°
2026-05-05 00:30 41.56543 -71.96923 21056 ft 431 kts 65°
2026-05-05 00:30 41.57643 -71.93187 21064 ft 432 kts 65°
2026-05-05 00:30 41.58750 -71.89462 21069 ft 431 kts 65°
2026-05-05 00:31 41.59876 -71.85736 20759 ft 431 kts 65°
2026-05-05 00:31 41.60982 -71.82029 20381 ft 428 kts 65°
2026-05-05 00:31 41.62063 -71.78333 20014 ft 426 kts 66°
2026-05-05 00:31 41.63144 -71.74647 19640 ft 424 kts 66°
2026-05-05 00:32 41.64227 -71.70991 19234 ft 423 kts 66°
2026-05-05 00:32 41.65305 -71.67344 18752 ft 420 kts 66°
2026-05-05 00:32 41.66365 -71.63726 18282 ft 417 kts 66°
2026-05-05 00:32 41.67420 -71.60121 17750 ft 414 kts 66°
2026-05-05 00:33 41.68462 -71.56569 17215 ft 402 kts 66°
2026-05-05 00:33 41.69456 -71.53167 16681 ft 382 kts 66°
2026-05-05 00:33 41.70402 -71.49929 16152 ft 366 kts 66°
2026-05-05 00:33 41.71317 -71.46800 15664 ft 356 kts 66°
2026-05-05 00:34 41.72212 -71.43754 15388 ft 350 kts 66°
2026-05-05 00:34 41.73341 -71.40880 15084 ft 348 kts 57°
2026-05-05 00:34 41.74562 -71.38082 14793 ft 348 kts 57°
2026-05-05 00:34 41.75770 -71.35267 14491 ft 348 kts 58°
2026-05-05 00:35 41.76961 -71.32455 14186 ft 347 kts 58°
2026-05-05 00:35 41.78137 -71.29693 13885 ft 345 kts 58°
2026-05-05 00:35 41.79327 -71.26914 13561 ft 344 kts 58°
2026-05-05 00:35 41.80508 -71.24143 13244 ft 341 kts 58°
2026-05-05 00:36 41.81676 -71.21396 12943 ft 338 kts 58°
2026-05-05 00:36 41.82835 -71.18671 12647 ft 335 kts 58°
2026-05-05 00:36 41.83986 -71.15962 12353 ft 333 kts 58°
2026-05-05 00:36 41.85124 -71.13281 12056 ft 327 kts 58°
2026-05-05 00:37 41.86222 -71.10696 11962 ft 312 kts 58°
2026-05-05 00:37 41.87327 -71.08158 11964 ft 316 kts 57°
2026-05-05 00:37 41.88441 -71.05605 11863 ft 319 kts 58°
2026-05-05 00:37 41.89549 -71.03035 11635 ft 317 kts 58°
2026-05-05 00:38 41.90646 -71.00482 11403 ft 314 kts 58°
2026-05-05 00:38 41.91738 -70.97952 11178 ft 312 kts 58°
2026-05-05 00:38 41.92824 -70.95433 10954 ft 311 kts 58°
2026-05-05 00:38 41.93888 -70.92960 10730 ft 309 kts 58°
2026-05-05 00:39 41.94960 -70.90467 10516 ft 308 kts 58°
2026-05-05 00:39 41.96026 -70.87986 10281 ft 306 kts 57°
2026-05-05 00:39 41.97080 -70.85531 10266 ft 305 kts 57°
2026-05-05 00:39 41.98140 -70.83062 10273 ft 306 kts 57°
2026-05-05 00:40 41.99198 -70.80592 10268 ft 305 kts 57°
2026-05-05 00:40 42.00262 -70.78108 10118 ft 306 kts 57°
2026-05-05 00:40 42.01405 -70.75720 9836 ft 301 kts 47°
2026-05-05 00:40 42.02796 -70.73637 9562 ft 298 kts 43°
2026-05-05 00:41 42.04203 -70.71592 9283 ft 297 kts 44°
2026-05-05 00:41 42.05585 -70.69519 9012 ft 297 kts 45°
2026-05-05 00:41 42.06954 -70.67443 8733 ft 296 kts 45°
2026-05-05 00:41 42.08329 -70.65380 8453 ft 296 kts 44°
2026-05-05 00:42 42.09706 -70.63327 8173 ft 294 kts 44°
2026-05-05 00:42 42.11293 -70.61667 7821 ft 287 kts 21°
2026-05-05 00:42 42.13175 -70.60943 7601 ft 280 kts
2026-05-05 00:42 42.15086 -70.60427 7371 ft 281 kts
2026-05-05 00:43 42.17003 -70.59908 7117 ft 280 kts
2026-05-05 00:43 42.18906 -70.59372 6818 ft 279 kts
2026-05-05 00:43 42.20803 -70.58838 6555 ft 278 kts
2026-05-05 00:43 42.22673 -70.58317 6291 ft 278 kts
2026-05-05 00:44 42.24584 -70.57784 6005 ft 277 kts
2026-05-05 00:44 42.26445 -70.57264 5744 ft 276 kts
2026-05-05 00:44 42.28326 -70.56739 5485 ft 277 kts
2026-05-05 00:44 42.30215 -70.56215 5224 ft 276 kts
2026-05-05 00:45 42.32089 -70.56209 4890 ft 265 kts 341°
2026-05-05 00:45 42.33728 -70.57171 4911 ft 256 kts 321°
2026-05-05 00:45 42.35027 -70.58754 4938 ft 252 kts 311°
2026-05-05 00:45 42.36283 -70.60405 4945 ft 253 kts 311°
2026-05-05 00:46 42.37551 -70.62053 4924 ft 252 kts 311°
2026-05-05 00:46 42.38385 -70.63146 4925 ft 252 kts 311°
2026-05-05 00:46 42.39644 -70.64801 4922 ft 252 kts 311°
2026-05-05 00:46 42.40898 -70.66454 4900 ft 252 kts 311°
2026-05-05 00:47 42.42172 -70.68132 4902 ft 253 kts 311°
2026-05-05 00:47 42.43415 -70.69768 4898 ft 253 kts 311°
2026-05-05 00:47 42.44676 -70.71428 4896 ft 253 kts 311°
2026-05-05 00:47 42.45934 -70.73088 4891 ft 253 kts 311°
2026-05-05 00:48 42.47194 -70.74750 4891 ft 252 kts 311°
2026-05-05 00:48 42.48447 -70.76402 4926 ft 251 kts 311°
2026-05-05 00:48 42.49684 -70.78033 4888 ft 239 kts 311°
2026-05-05 00:48 42.50837 -70.79550 4656 ft 229 kts 310°
2026-05-05 00:49 42.52031 -70.80921 4228 ft 222 kts 313°
2026-05-05 00:49 42.53098 -70.82411 3819 ft 220 kts 306°
2026-05-05 00:49 42.54112 -70.83966 3431 ft 220 kts 306°
2026-05-05 00:49 42.54787 -70.85724 2890 ft 206 kts 273°
2026-05-05 00:50 42.54416 -70.87432 2746 ft 178 kts 238°
2026-05-05 00:50 42.53733 -70.88769 2887 ft 175 kts 235°
2026-05-05 00:50 42.53059 -70.90109 2889 ft 164 kts 236°
2026-05-05 00:50 42.52443 -70.91335 2888 ft 155 kts 236°
2026-05-05 00:51 42.51836 -70.92514 2860 ft 151 kts 229°
2026-05-05 00:51 42.50968 -70.93344 2793 ft 158 kts 212°
2026-05-05 00:51 42.49954 -70.93922 2598 ft 157 kts 205°
2026-05-05 00:51 42.48970 -70.94431 2375 ft 143 kts 204°
2026-05-05 00:52 42.48021 -70.94906 2188 ft 147 kts 204°
2026-05-05 00:52 42.47047 -70.95378 2030 ft 146 kts 205°
2026-05-05 00:52 42.46095 -70.95840 1832 ft 144 kts 204°
2026-05-05 00:52 42.45163 -70.96290 1642 ft 135 kts 204°
2026-05-05 00:53 42.44368 -70.96681 1461 ft 111 kts 205°
2026-05-05 00:53 42.43660 -70.97026 1322 ft 107 kts 204°
2026-05-05 00:53 42.42961 -70.97354 1191 ft 108 kts 204°
2026-05-05 00:53 42.42245 -70.97712 1055 ft 111 kts 207°
2026-05-05 00:54 42.41502 -70.98082 942 ft 113 kts 202°
2026-05-05 00:54 42.40738 -70.98435 803 ft 120 kts 201°
2026-05-05 00:54 42.39959 -70.98811 625 ft 121 kts 200°
2026-05-05 00:54 42.39193 -70.99191 438 ft 116 kts 200°
2026-05-05 00:55 42.38444 -70.99564 292 ft 116 kts 199°
2026-05-05 00:55 42.37686 -70.99931 132 ft 115 kts 198°
2026-05-05 00:55 42.36963 -71.00282 25 ft 103 kts 199°
2026-05-05 00:55 42.36433 -71.00539 26 ft 56 kts 199°
2026-05-05 00:56 42.36203 -71.00649 22 ft 23 kts 202°
2026-05-05 00:56 42.36147 -71.00797 20 ft 16 kts 286°
2026-05-05 00:56 42.36169 -71.00869 24 ft 1 kts 294°
2026-05-05 00:56 42.36171 -71.00875 24 ft 3 kts 294°
2026-05-05 00:57 42.36194 -71.00946 23 ft 15 kts 294°
2026-05-05 00:57 42.36255 -71.01128 24 ft 22 kts 294°
2026-05-05 00:57 42.36326 -71.01293 23 ft 16 kts 302°
2026-05-05 00:57 42.36348 -71.01324 21 ft 2 kts 328°
2026-05-05 00:58 42.36442 -71.01281 21 ft 23 kts 19°
2026-05-05 00:58 42.36603 -71.01203 24 ft 25 kts 20°
2026-05-05 00:58 42.36740 -71.01141 24 ft 19 kts
2026-05-05 00:58 42.36854 -71.01228 21 ft 20 kts 315°
2026-05-05 00:59 42.36950 -71.01358 23 ft 20 kts 316°
2026-05-05 00:59 42.37052 -71.01495 23 ft 21 kts 316°
2026-05-05 00:59 42.37161 -71.01640 26 ft 24 kts 315°
2026-05-05 00:59 42.37296 -71.01822 26 ft 29 kts 315°
2026-05-05 01:00 42.37431 -71.02002 22 ft 20 kts 315°
2026-05-05 01:00 42.37428 -71.02097 23 ft 12 kts 222°
2026-05-05 01:00 42.37420 -71.02143 23 ft 6 kts 320°
2026-05-05 01:00 42.37438 -71.02164 24 ft 0 kts 317°